Regional Weather Roundup
Issued by NWS

Home | Current Version | Previous Version | Graphics & Text | Print | Product List | Glossary On
Versions: 1 2 3 4 5 6 7 8 9 10 11 12 13 14 15 16 17 18 19 20 21 22 23 24 25 26 27 28 29 30 31 32 33 34 35 36 37 38 39 40 41 42 43 44 45 46 47 48 49 50
535
ASUS44 KLIX 010801
RWRLA
LOUISIANA WEATHER ROUNDUP
NATIONAL WEATHER SERVICE NEW ORLEANS LA
300 AM CDT SAT NOV 01 2014

NOTE: "FAIR" INDICATES FEW OR NO CLOUDS BELOW 12,000 FEET WITH NO
      SIGNIFICANT WEATHER AND/OR OBSTRUCTIONS TO VISIBILITY.
      SKY/WX - SKY CONDITION AND SIGNIFICANT WEATHER.
      TMP - AIR TEMPERATURE.    DP   - DEWPOINT TEMPERATURE.
      RH  - RELATIVE HUMIDITY.  PRES - PRESSURE.
      HX  - HEAT INDEX.         WCI  - WIND CHILL INDEX.

*  THESE STATIONS ARE NOT NWS OR FAA STATIONS AND ARE NOT UNDER
   NWS QUALITY CONTROL.

LAZ040-048-061>063-065-066-069-010900-
SOUTHEAST LOUISIANA

CITY           SKY/WX    TMP DP  RH WIND       PRES   REMARKS
N.O. AUDUBON     N/A     55  37  52 MISG        N/A
N.O. INTL ARPT PTCLDY    53  37  54 N22G32    30.22R
N.O. LAKEFRONT CLEAR     54  40  59 N30G36    30.23R
N.O. DOWNTOWN* FAIR      54  34  47 N13G29    30.22R
SLIDELL        CLEAR     49  34  56 N14       30.22R
BATON ROUGE    CLEAR     49  35  58 N6        30.26R
BOOTHVILLE     CLEAR     57  41  55 N18G31    30.17R
BELLE CHASSE   CLEAR     54  37  52 N15G23    30.19R
BOGALUSA*        N/A     47  24  40 N14G20    30.27R
NEW ROADS*     FAIR      47  36  64 N8G20     30.28R
GONZALES*      FAIR      51  35  54 N9G21     30.23F
HAMMOND*       NOT AVBL
HOUMA*         CLEAR     51  41  69 N9        30.20S
PORT FOURCHON* NOT AVBL

$$

LAZ041-044-053-054-010900-
SOUTHWEST LOUISIANA

CITY           SKY/WX    TMP DP  RH WIND       PRES   REMARKS
LAKE CHARLES   CLEAR     53  43  68 NE14      30.26R
LAFAYETTE      CLEAR     51  43  74 NE12      30.25R
PATTERSON      CLEAR     54  41  62 NE16G22   30.24F
SALT POINT       N/A     54  44  69 N6        30.20F
NEW IBERIA     CLEAR     53  43  68 NE17      30.25R
CHENAULT AIRPK CLEAR     52  43  72 NE12      30.26R

$$

LAZ027-028-010900-
CENTRAL LOUISIANA

CITY           SKY/WX    TMP DP  RH WIND       PRES   REMARKS
FORT POLK      CLEAR     48  36  63 NE12G18   30.28S
ALEXANDRIA INT CLEAR     47  32  56 NE10      30.29R
ALEXANDRIA     CLEAR     45  34  65 VRB5      30.31S

$$

LAZ001-002-010900-
NORTHWEST LOUISIANA

CITY           SKY/WX    TMP DP  RH WIND       PRES   REMARKS
SHREVEPORT     CLEAR     46  27  47 NE10      30.36R
BARKSDALE AFB  CLEAR     43  29  58 NE5       30.36R
DTN SHREVEPORT CLEAR     44  28  53 NE5       30.37R

$$

LAZ014-016-010900-
NORTHEAST LOUISIANA

CITY           SKY/WX    TMP DP  RH WIND       PRES   REMARKS
MONROE         CLEAR     42  30  62 N7        30.36R
TALLULAH       CLEAR     41  27  57 N8        30.33R

$$




USA.gov is the U.S. government's official web portal to all federal, state and local government web resources and services.